Location: Kavul?ru
(16.6288°N, 80.5832°E)
Time: 20:23:29
(UTC+00:00)

SL-4 R/B - Pass Details

Date: 15 May 2026
Orbit: 378 x 503 km, 51.6° (Epoch: 8 June)

Event Time Altitude Azimuth Distance (km) Brightness Sun altitude
Rises 14:38:59 0° 324° (NW) 2,567 6.5 -22.1°
Reaches altitude 10° 14:41:09 10° 326° (NW) 1,695 5.4 -22.6°
Enters shadow 14:44:30 63° 353° (N) 563 2.1 -23.3°
